Theta_e
318 318 318 317 318 320 321 321 320 322 320 317 318 318 319 322 323 323 323 325 328 329 328 327 334 337 346 352 351 351 353 357 357 359 362 355 350 351 349 351 351 348 347 340 329 328 325 319 316 314 313 314 314 315 317 318 319 320 319 317 316 317 318 320 325 328 328 330 331 333 335 336 337 338 338 337 338 337 337 337 337 336 334 334 331 326 323 326 325 319 316 312 312 316 320 321 321
317 317 317 316 318 320 321 320 319 319 318 315 317 318 320 322 323 323 323 327 328 329 327 326 338 345 347 348 346 348 351 354 352 355 355 350 351 349 349 351 351 350 347 338 330 328 325 319 316 314 313 314 315 315 316 319 319 320 319 317 316 317 318 320 325 327 328 330 333 335 336 336 337 338 338 337 338 337 338 338 337 337 335 334 332 328 321 324 326 320 317 313 310 312 315 317 317
317 317 316 316 318 320 320 320 320 317 316 315 317 320 321 322 322 323 325 328 327 327 327 325 338 344 347 349 346 349 351 352 351 352 350 350 350 348 349 350 350 350 345 337 330 328 324 319 315 313 313 314 315 315 317 319 320 320 319 317 316 317 317 320 325 327 329 332 335 336 336 336 337 337 337 337 337 337 337 337 337 336 335 334 331 327 318 318 323 320 316 312 309 310 311 313 313
316 316 315 317 319 320 320 321 321 318 315 315 316 320 322 322 322 323 326 329 327 327 326 328 342 344 347 351 348 349 349 350 352 351 350 350 349 349 349 349 350 348 344 337 330 328 323 318 315 313 313 314 315 316 317 319 320 320 320 319 317 317 317 320 324 327 330 334 336 337 337 337 337 337 337 337 337 337 337 337 337 335 333 330 326 322 315 315 320 319 315 311 308 309 309 310 310
315 315 316 317 319 320 320 320 320 318 316 316 317 320 322 322 322 323 324 327 325 326 323 326 342 347 347 348 347 348 349 349 352 351 351 350 349 349 349 350 349 347 343 335 330 329 323 318 315 313 313 313 315 316 317 320 321 321 321 320 319 317 317 321 324 327 332 336 337 337 337 337 337 337 337 337 337 336 336 336 335 334 332 328 325 319 312 314 318 317 314 310 308 309 309 309 309
315 316 319 318 319 319 319 318 318 317 317 319 318 320 322 321 322 322 323 325 324 324 323 330 341 346 347 346 345 346 348 348 350 352 351 350 350 350 350 350 349 346 342 334 332 329 323 319 314 313 313 313 315 316 318 319 321 322 322 322 321 319 319 322 324 328 334 337 337 338 338 338 338 337 337 336 335 335 334 334 333 332 330 325 323 316 311 315 317 315 312 309 309 309 309 309 309
315 318 319 320 319 319 319 317 316 316 317 320 319 320 321 320 322 321 323 323 323 323 324 337 341 345 348 345 346 346 347 347 349 351 352 351 350 350 350 350 349 345 339 334 332 330 324 319 315 312 312 314 315 316 318 320 322 323 324 325 323 321 321 323 326 332 336 337 337 337 338 338 338 337 337 336 333 332 332 331 329 327 323 318 315 312 313 317 315 313 311 310 309 309 309 309 309
315 318 318 319 320 319 319 317 316 317 318 320 320 320 320 321 322 321 323 321 324 323 323 336 340 345 347 346 349 349 347 348 349 351 352 351 350 350 350 350 348 343 337 334 333 330 325 320 316 313 312 313 315 317 318 320 322 324 327 328 328 326 326 328 332 336 337 337 337 337 338 338 337 337 336 334 331 330 328 326 321 318 314 311 309 310 315 316 313 312 310 310 309 309 310 309 310
317 317 318 317 318 318 317 317 317 318 319 320 320 320 321 322 322 321 323 321 322 323 322 333 338 346 347 349 352 350 349 349 350 352 351 351 351 349 349 348 347 343 337 334 334 331 326 322 317 313 312 313 315 317 318 321 323 326 329 330 332 333 333 335 336 337 337 337 337 337 337 337 337 336 334 332 330 328 325 319 313 310 309 308 308 312 315 314 312 311 311 310 310 310 310 310 311
319 318 318 317 317 316 314 315 317 318 319 320 320 320 322 321 322 323 322 322 322 322 323 330 338 347 349 351 353 352 351 350 351 352 351 351 349 348 347 347 346 344 339 335 334 332 327 323 318 314 312 313 316 317 318 320 325 328 330 331 334 335 336 336 337 337 337 337 337 337 336 336 336 335 332 330 328 326 322 314 309 308 308 307 309 313 314 312 311 311 311 311 311 311 311 311 311
320 318 317 317 316 314 313 314 315 318 319 320 320 320 322 321 322 322 321 322 322 321 322 332 344 348 349 351 352 353 352 351 351 352 351 350 348 347 347 346 345 345 343 339 335 333 328 325 321 316 312 313 316 317 318 321 327 329 330 332 334 336 336 337 337 337 337 337 336 336 335 335 335 333 331 328 326 324 320 312 307 308 308 308 310 313 312 311 312 311 311 311 311 312 311 312 312
319 318 317 316 315 314 314 314 315 318 318 319 320 320 322 322 322 321 321 322 321 322 320 330 345 348 349 350 352 352 352 352 352 351 350 349 348 348 347 347 346 346 346 343 338 334 330 327 324 318 312 313 316 318 317 322 328 329 330 333 335 336 336 336 337 336 336 336 336 335 334 334 333 332 329 327 326 324 319 311 308 308 308 309 311 312 311 311 312 311 311 311 312 312 312 312 312
317 318 317 316 316 315 315 314 315 319 318 319 319 320 321 321 321 321 321 321 321 323 321 332 343 348 350 350 352 353 353 352 351 351 350 349 348 348 347 347 347 346 346 345 340 335 331 328 327 322 314 312 316 318 317 323 329 328 330 333 335 336 336 336 336 336 336 336 335 334 334 333 331 329 327 325 323 321 318 311 308 308 309 309 311 311 311 311 312 311 312 311 312 312 312 312 312
317 318 317 317 317 316 316 314 315 316 316 318 319 321 321 321 321 321 322 321 322 321 324 337 342 348 351 351 352 352 353 352 351 351 350 349 348 348 348 347 347 347 345 343 339 335 332 329 329 326 316 312 315 318 319 323 328 328 331 334 335 335 335 335 335 336 336 335 334 333 332 330 327 324 320 318 318 317 315 310 308 309 309 310 311 311 311 311 311 312 312 312 312 312 312 312 312
317 317 317 317 317 316 316 316 316 315 316 319 320 321 321 321 322 322 322 321 322 322 324 334 340 349 352 351 352 352 353 352 351 351 350 349 348 348 348 347 347 346 345 342 338 335 333 330 331 329 321 313 313 318 319 324 329 331 332 334 335 335 335 335 335 335 334 333 332 329 326 324 322 321 320 318 315 314 313 309 308 308 309 310 311 311 311 312 312 312 312 312 312 312 312 312 312
318 317 317 317 316 315 316 317 317 316 318 319 320 322 321 321 322 322 322 321 322 323 324 334 338 344 350 348 349 352 352 351 351 350 349 349 348 348 347 347 346 345 344 341 338 336 334 332 332 331 325 316 313 316 320 324 330 332 333 333 334 335 335 335 334 334 333 331 328 324 324 326 326 327 328 323 316 313 312 309 309 308 309 310 312 312 312 312 312 313 312 312 313 312 312 312 312
318 317 316 316 315 315 316 317 317 316 319 320 321 321 321 321 321 322 321 322 323 325 333 339 340 339 344 344 345 351 352 351 350 350 349 348 348 348 347 347 346 345 343 340 338 336 335 334 333 332 329 321 314 315 320 324 329 331 332 333 333 333 333 334 333 332 330 327 325 326 330 333 332 331 331 326 316 311 310 308 309 309 309 309 311 313 314 314 313 313 313 313 313 313 313 312 312
318 317 316 315 315 316 316 318 317 318 319 320 322 321 322 321 320 322 321 324 322 329 343 345 345 346 344 346 349 351 351 350 350 349 348 348 348 348 347 346 344 344 342 339 337 336 336 335 334 333 330 324 317 315 319 323 327 330 331 333 332 332 332 332 331 329 328 328 330 334 335 335 334 331 330 326 318 311 311 310 309 309 309 309 310 313 314 315 315 315 315 315 315 314 314 315 315
317 317 316 315 315 317 317 318 318 318 319 319 322 322 322 321 321 322 322 327 323 334 348 351 351 352 349 350 351 351 351 350 350 349 348 348 347 347 346 345 345 343 341 340 338 337 336 336 335 334 331 326 319 316 317 319 323 328 331 332 331 331 331 331 328 328 331 334 336 336 335 333 332 330 327 326 323 320 320 320 317 314 310 309 309 310 313 315 316 316 317 316 317 317 317 319 320
318 318 317 316 316 317 318 318 318 319 319 319 321 322 322 322 321 323 322 325 325 337 350 354 353 353 351 351 352 351 351 350 349 348 347 347 347 347 346 346 346 344 342 342 342 340 337 337 336 336 334 329 322 318 315 315 321 327 330 330 330 330 330 329 328 330 334 337 337 335 333 331 329 327 324 325 326 325 325 325 324 322 317 313 312 311 310 312 313 314 315 316 317 318 320 324 325
319 318 317 317 317 317 317 318 319 319 319 320 321 322 322 322 322 322 322 321 326 336 345 351 352 352 352 351 352 351 350 349 349 348 347 347 347 346 345 346 346 345 344 344 345 343 340 339 339 338 337 334 327 319 315 317 322 327 329 329 329 329 330 331 331 332 335 337 337 335 332 330 329 327 323 324 326 325 325 324 323 326 326 323 323 321 317 316 318 317 316 316 315 315 321 328 329
318 318 318 318 317 317 318 318 319 319 319 319 319 321 321 322 322 321 322 325 333 336 339 348 351 351 351 351 352 351 350 349 349 348 347 347 347 346 346 346 346 345 345 345 345 344 343 342 342 341 340 337 329 320 317 321 326 328 328 328 328 330 333 334 334 335 335 337 336 334 332 329 328 328 325 325 324 326 329 328 324 325 328 328 328 329 327 325 326 326 326 323 320 319 323 328 330
317 318 317 318 318 317 318 318 319 319 319 319 318 321 320 322 320 321 333 335 340 340 339 350 352 352 351 351 351 351 350 349 349 348 347 347 346 346 345 345 345 345 345 345 345 344 344 343 342 340 339 335 327 318 317 322 330 332 331 331 332 334 337 337 337 337 336 336 336 333 332 329 327 326 325 326 326 328 332 331 328 327 329 330 329 328 329 330 329 330 331 330 328 327 327 327 329
317 317 316 319 318 318 319 318 319 318 319 318 319 320 318 322 318 324 340 342 343 344 344 350 351 351 351 350 350 350 350 349 347 343 341 342 342 343 343 343 343 344 344 344 344 344 343 342 340 338 337 334 328 322 319 324 332 335 335 335 334 335 337 337 337 338 336 336 335 333 331 328 326 325 326 330 331 331 333 333 332 331 332 333 332 329 330 333 331 331 333 332 332 331 329 327 327
316 316 316 319 318 319 319 318 319 318 319 319 319 320 318 320 318 329 342 343 345 348 349 351 350 350 350 350 348 346 345 346 345 343 342 341 341 341 342 342 342 343 343 343 343 342 341 341 339 338 337 334 331 330 329 331 335 336 336 335 334 334 334 335 336 336 336 334 334 332 330 323 321 327 331 333 334 333 333 334 333 333 334 334 333 332 332 333 332 333 333 333 333 333 331 329 328
316 316 317 317 318 319 318 319 318 318 319 319 320 320 319 319 321 336 344 344 345 348 348 349 350 349 350 350 348 345 343 345 346 346 345 342 341 341 342 341 341 342 341 342 341 339 339 339 339 338 337 335 333 334 334 335 335 335 336 335 335 336 334 335 335 335 334 332 331 330 327 321 322 330 334 333 334 334 333 333 333 333 334 333 333 333 333 333 333 333 333 333 334 335 334 332 331
316 316 317 317 318 318 318 318 317 319 318 320 321 318 321 319 318 337 344 343 344 345 346 347 348 349 349 349 348 347 346 347 348 346 343 341 341 341 341 341 341 341 340 340 339 337 337 337 337 336 336 335 334 335 335 335 335 335 335 335 336 337 335 335 335 335 332 327 325 324 324 324 329 334 334 334 334 335 334 333 334 333 333 333 334 334 333 333 334 333 333 333 334 335 335 334 333
316 316 317 317 318 318 318 318 317 319 318 319 321 318 321 317 319 338 343 342 342 343 344 346 346 348 349 347 347 347 346 347 345 343 341 340 340 341 340 340 340 340 340 339 337 336 336 336 335 335 335 335 334 335 334 334 335 333 334 335 336 336 335 335 336 333 328 324 324 326 328 329 333 335 334 335 335 335 334 333 333 333 333 334 334 333 333 333 334 333 333 333 333 333 333 334 333
316 316 316 316 317 317 317 318 318 319 320 321 319 319 318 317 331 341 341 340 340 341 343 346 347 347 347 346 346 346 346 345 342 340 339 337 338 341 340 340 340 339 340 338 336 336 335 335 334 334 334 335 335 335 333 332 333 333 334 335 335 335 335 334 333 330 327 330 332 332 334 333 334 335 335 334 334 334 333 333 334 333 334 334 334 334 333 334 333 334 334 333 333 333 333 334 333
315 315 315 315 316 316 317 317 318 318 321 320 318 319 316 323 340 342 340 339 339 339 342 345 346 346 345 346 345 344 344 342 339 339 340 338 339 341 340 340 339 339 339 337 336 335 334 334 334 335 336 336 335 334 332 332 333 334 334 333 333 334 334 332 332 331 332 335 336 335 335 334 335 334 334 333 334 335 334 334 334 334 335 335 334 335 334 334 334 334 333 333 333 333 333 334 333
315 314 314 315 314 315 317 318 317 318 320 320 319 316 314 329 341 341 339 339 338 339 340 342 343 345 344 344 343 341 341 340 339 339 341 341 341 340 340 339 338 338 338 336 336 334 332 333 334 335 337 336 334 332 331 332 334 335 332 331 332 333 333 334 334 335 335 336 335 334 334 334 334 334 333 333 334 335 335 335 335 335 335 334 334 334 334 335 334 334 333 333 333 333 333 334 334
315 313 312 314 314 315 318 318 318 318 318 321 318 315 323 339 342 341 340 339 338 340 339 340 341 343 343 342 341 340 339 340 341 340 341 341 339 339 339 338 337 337 336 335 334 333 332 332 332 335 336 335 334 332 332 334 335 335 333 333 334 334 335 337 337 337 336 335 334 334 333 333 334 334 334 334 334 335 335 335 335 335 335 334 334 335 334 335 334 333 333 333 334 334 333 333 334
314 313 313 314 314 315 317 318 318 318 318 321 317 316 333 346 343 342 341 338 340 340 339 339 339 341 341 340 339 339 339 340 340 340 340 340 339 339 339 338 338 337 336 335 333 333 332 330 331 334 335 334 334 335 335 336 336 336 336 336 336 336 337 337 336 336 335 335 334 334 333 333 333 334 335 334 333 334 335 335 335 334 334 334 334 334 334 334 334 333 334 333 334 334 333 333 334
314 314 315 315 315 315 315 317 317 318 317 319 318 315 331 344 344 343 341 338 340 340 339 338 338 338 339 339 338 339 339 339 340 340 340 340 340 339 338 338 338 337 335 334 334 334 332 331 332 333 334 335 336 336 336 336 337 337 337 336 335 336 336 336 336 335 335 335 335 335 334 333 333 333 333 332 331 333 334 335 335 333 333 334 334 333 333 333 333 333 333 332 333 333 332 333 333
313 314 316 315 315 315 314 316 316 318 317 318 319 315 330 343 343 342 341 339 341 341 340 339 338 338 338 339 338 339 339 338 340 340 340 340 339 339 339 339 338 336 335 335 335 335 333 333 333 334 334 335 336 337 336 336 337 336 336 336 335 335 335 334 335 335 336 335 335 335 333 333 333 333 332 332 332 332 332 333 333 333 334 334 333 333 332 332 332 332 332 332 333 333 332 333 334
314 315 316 314 314 314 315 317 316 318 316 317 317 316 333 343 340 342 341 341 341 340 341 339 339 338 337 338 338 339 339 338 339 340 340 340 339 340 340 338 337 336 335 335 335 334 333 333 334 334 334 334 335 336 336 335 336 336 336 336 335 334 333 333 334 335 335 335 334 334 333 333 333 333 333 333 332 329 329 332 333 334 335 334 333 333 332 332 332 331 331 331 332 332 333 333 334
314 314 314 314 313 313 316 317 317 318 316 317 316 318 335 342 340 343 341 340 341 340 340 340 338 338 338 339 339 339 338 338 339 339 339 340 340 340 340 338 337 337 336 336 335 333 333 334 333 333 333 335 336 336 335 335 334 335 335 335 334 333 332 333 334 334 334 334 334 333 333 332 331 332 334 333 332 331 332 335 335 334 334 333 332 332 332 333 333 332 332 331 332 332 332 333 334
314 314 313 313 313 313 316 317 317 319 316 317 316 317 333 341 341 341 340 340 341 339 340 340 339 338 338 340 340 339 338 338 339 338 339 340 340 340 339 338 337 337 337 336 335 333 333 334 334 334 334 335 335 335 335 335 334 334 334 333 333 333 333 333 334 335 334 333 333 333 332 333 332 333 333 333 334 335 335 335 335 334 333 333 332 332 332 333 333 332 332 332 332 332 332 334 334
314 314 313 314 314 314 316 317 317 318 316 318 316 316 330 340 341 339 339 340 341 340 340 340 339 339 340 340 340 339 338 338 339 339 339 340 340 340 338 337 337 337 337 336 335 334 333 334 335 335 335 334 334 334 335 335 334 333 333 332 332 332 332 332 334 334 333 333 332 333 333 334 334 334 333 334 335 335 335 334 334 333 333 333 332 332 332 332 332 332 331 331 332 331 332 333 333
314 314 313 313 314 314 314 315 317 317 318 318 315 322 333 340 340 339 338 339 340 341 341 340 339 340 341 340 339 338 338 338 338 338 339 339 339 339 338 338 337 337 337 336 335 335 334 335 335 335 335 334 333 334 335 335 334 333 333 331 332 332 330 331 332 331 331 331 332 333 334 335 334 334 334 334 335 335 334 333 333 333 333 332 332 332 332 331 331 331 331 331 331 331 331 331 332
314 313 313 313 314 315 314 316 317 317 320 318 318 329 338 339 338 340 338 339 340 339 339 339 340 340 340 339 337 338 337 337 337 337 338 338 339 339 339 337 337 336 337 336 335 335 335 335 336 335 334 333 334 334 335 334 334 334 333 331 332 332 330 330 330 330 331 331 333 334 335 335 334 335 335 334 334 334 334 333 333 333 333 332 332 332 332 331 331 331 331 331 330 330 329 328 330
314 314 314 314 314 315 315 316 317 315 317 318 318 327 336 337 336 338 338 340 341 338 337 338 339 340 338 338 337 336 337 337 336 336 336 337 338 338 338 337 337 337 337 337 336 336 336 336 336 335 334 333 334 334 334 334 333 333 332 332 333 332 331 331 331 332 332 332 334 335 335 335 334 335 334 333 333 332 332 333 333 333 332 331 331 331 332 331 331 331 330 330 329 329 328 327 327
313 314 315 315 314 315 315 315 316 315 316 319 317 324 334 338 334 335 337 339 340 338 337 336 336 335 335 337 337 335 336 336 335 335 335 336 337 338 337 337 337 337 337 337 337 337 336 336 335 334 333 333 333 333 333 333 331 330 330 331 332 332 332 333 333 333 334 334 335 335 334 334 333 333 333 333 332 332 331 331 331 331 331 330 330 330 330 330 330 330 329 328 328 327 327 326 325
312 314 314 315 314 314 315 314 316 318 318 320 317 323 334 338 335 335 336 337 340 339 337 336 334 332 334 337 337 336 336 335 335 335 335 335 337 337 337 337 337 337 337 337 337 337 336 335 335 334 333 332 332 333 333 333 332 331 332 332 333 334 333 333 333 334 334 334 334 333 333 332 331 331 331 331 331 331 330 329 329 330 330 329 329 328 327 327 326 325 325 324 323 323 323 324 323
313 315 314 315 315 315 316 315 316 320 318 316 316 317 325 333 337 335 335 336 338 339 338 336 333 331 335 337 337 337 336 336 335 335 335 335 336 337 336 336 337 337 337 337 336 336 335 335 334 334 333 333 333 333 334 334 334 334 334 334 334 334 334 334 334 334 334 333 332 332 331 330 330 329 328 328 328 328 327 326 326 326 327 326 325 323 322 320 319 318 318 318 318 318 319 319 319
313 315 315 315 315 316 317 317 317 318 318 316 317 314 316 328 338 335 336 337 336 337 336 334 332 332 335 336 337 337 336 336 335 334 335 336 336 336 336 336 337 337 336 336 336 335 335 335 335 334 334 333 333 334 334 334 335 334 334 334 333 333 333 333 333 333 332 332 331 330 329 328 328 327 327 326 325 324 323 322 321 320 320 320 319 318 317 316 315 316 315 314 314 314 315 315 315
315 315 314 314 316 317 318 321 318 316 320 318 316 315 314 327 337 335 336 338 334 335 335 333 331 332 333 335 337 337 336 336 336 335 335 336 336 336 336 336 336 336 335 334 334 334 335 335 335 334 333 333 333 333 334 334 334 333 333 333 333 333 332 332 332 331 330 329 329 328 327 327 326 326 325 323 321 320 318 317 317 316 316 316 315 314 314 314 313 313 313 312 312 312 312 313 312
315 314 314 314 316 317 316 318 317 316 322 320 317 318 313 320 334 336 335 336 333 335 335 333 332 331 332 335 338 337 336 336 335 335 335 335 336 335 335 335 334 334 334 333 333 333 333 334 334 334 333 333 333 333 333 333 333 333 332 332 332 332 332 330 330 329 328 327 327 326 326 325 324 324 322 319 317 316 316 316 315 315 315 314 313 312 312 312 311 311 310 310 310 310 311 311 310
314 313 314 314 315 315 314 317 319 319 323 321 316 319 314 317 331 336 335 335 333 334 334 333 332 331 332 335 337 337 336 335 335 335 335 335 335 334 335 334 334 333 333 332 332 332 332 332 333 333 333 333 333 333 333 333 333 332 332 332 331 330 329 329 328 328 327 326 325 325 324 324 323 322 318 316 316 315 315 315 314 313 312 312 311 311 310 310 309 309 308 308 308 308 308 308 307
313 312 313 316 315 314 316 318 322 322 321 320 317 319 317 317 326 332 334 334 332 334 333 333 333 332 333 335 337 337 336 335 334 335 335 335 334 334 334 334 333 332 332 331 330 330 331 331 331 331 331 331 331 331 332 331 331 331 331 330 329 329 328 328 328 327 326 325 324 323 323 323 322 319 316 315 315 314 314 313 312 311 310 310 309 309 308 308 307 307 306 305 305 305 305 304 304
314 313 315 317 316 319 320 319 322 322 319 318 317 318 318 321 328 333 332 331 332 333 333 333 333 333 335 336 336 337 336 335 334 335 335 334 334 333 333 332 331 331 330 329 329 329 329 329 329 329 329 329 329 330 329 330 330 329 329 329 329 328 328 327 327 327 326 324 323 322 322 322 319 316 315 315 314 313 311 310 310 309 308 308 307 307 306 305 305 304 303 303 303 302 302 301 302
314 314 314 315 318 326 323 319 325 325 320 320 320 320 323 327 333 333 330 331 331 332 333 333 333 333 335 336 336 336 336 335 334 335 334 334 333 332 331 331 330 329 329 329 328 328 328 328 328 328 328 328 327 327 327 327 328 327 327 327 327 328 327 327 326 325 324 322 321 320 320 318 315 314 314 313 313 311 309 308 308 307 306 306 305 304 303 303 302 301 301 301 300 300 300 301 301
316 314 314 315 318 323 320 318 324 324 322 322 321 323 327 331 336 332 329 332 332 333 334 334 333 334 335 336 337 336 335 335 334 334 334 333 333 331 331 330 329 328 328 328 328 327 327 327 327 327 326 325 324 324 324 324 325 325 325 326 326 325 325 325 324 323 322 321 319 318 316 314 313 313 312 310 309 308 306 306 305 304 304 303 302 301 301 300 299 299 299 299 299 300 301 302 302
315 313 313 316 317 318 319 320 321 321 322 321 319 325 328 331 338 337 331 333 335 335 335 334 334 334 335 337 336 335 335 334 334 334 333 333 332 331 330 329 329 328 328 327 327 326 326 326 325 324 324 323 322 321 321 322 322 322 323 323 323 323 323 322 322 321 320 318 316 314 313 312 313 312 310 307 306 305 305 304 303 302 301 300 300 299 298 298 298 298 298 299 300 301 301 301 301
314 314 315 317 318 318 319 320 321 321 320 318 317 324 329 328 333 334 331 334 338 337 335 334 334 334 336 336 336 335 335 334 334 333 332 332 331 330 329 329 328 328 327 326 325 325 325 324 323 323 322 321 321 320 320 320 321 321 321 320 320 319 319 318 318 317 316 314 313 312 312 312 312 310 308 305 304 304 303 302 301 300 299 298 298 298 297 297 297 297 298 298 300 301 301 301 300
313 315 315 316 320 321 319 321 322 321 321 320 318 321 325 326 328 331 333 335 338 337 336 335 334 334 335 336 336 335 334 334 334 333 332 331 330 329 329 328 328 327 326 325 325 324 324 323 322 321 320 319 319 319 318 318 318 318 317 317 316 315 314 314 313 313 313 312 312 312 311 311 310 308 306 305 304 302 301 300 299 298 297 297 297 297 297 297 297 297 298 299 300 300 301 301 300
312 314 315 314 316 318 319 320 319 319 322 322 321 320 321 325 329 332 334 335 337 337 336 336 335 335 336 336 335 335 334 334 333 332 331 331 330 329 329 328 327 326 325 325 324 324 323 321 320 319 319 318 317 317 316 316 315 315 314 314 313 313 313 312 312 312 312 311 311 310 310 310 308 306 305 303 302 300 299 298 297 297 297 297 296 296 297 297 297 298 298 298 299 299 300 300 299
313 314 315 316 317 316 317 319 316 316 321 323 324 325 327 332 334 333 334 335 337 337 336 336 336 336 336 336 335 335 334 333 333 332 331 330 329 328 328 327 326 325 325 324 324 323 322 320 319 318 317 317 316 315 314 314 313 313 313 312 312 312 312 312 312 312 311 311 310 308 308 307 306 305 303 301 299 298 297 297 296 296 296 296 296 296 297 297 297 298 299 300 300 299 299 299 298
Wind_Speed
13 14 14 13 14 15 12 10 4 2 0 3 4 3 6 8 8 11 12 10 4 4 13 15 16 20 16 18 21 20 12 4 4 4 6 10 20 24 21 21 20 18 19 22 21 19 17 15 13 13 14 15 15 15 16 16 16 16 17 17 18 18 19 19 18 18 17 17 16 15 14 14 13 13 12 12 13 13 13 13 12 12 13 12 12 12 12 12 12 13 13 13 14 14 15 16 17
14 14 13 12 12 9 8 7 2 3 3 3 5 4 8 9 8 12 10 4 5 4 14 17 25 35 30 29 26 21 14 9 14 18 18 20 23 21 19 19 18 16 18 23 22 20 19 16 15 14 15 16 16 16 16 17 17 17 17 18 18 18 19 18 19 18 17 17 16 15 14 14 13 13 12 12 13 12 13 12 12 12 12 11 10 11 11 10 10 11 12 13 14 14 15 16 17
13 14 12 10 9 6 7 4 1 3 4 4 5 5 8 9 10 11 5 4 9 8 12 17 19 22 23 17 14 14 8 13 25 28 25 23 24 22 20 18 17 16 18 22 22 20 19 18 16 15 16 16 16 16 17 18 18 18 18 18 18 18 18 18 18 18 17 16 15 14 13 13 13 12 12 12 12 12 12 12 11 11 10 10 9 9 9 8 9 10 11 12 14 15 15 16 17
12 12 11 9 8 5 2 0 2 3 4 4 4 6 10 11 14 10 2 6 9 10 9 15 13 11 19 14 12 16 11 16 25 28 25 22 25 25 21 19 19 18 19 22 22 20 19 18 17 16 16 17 17 16 17 18 19 19 18 18 18 18 18 18 18 17 17 16 15 13 13 12 12 12 12 12 12 11 11 10 10 10 9 9 9 8 8 7 8 9 10 12 14 15 16 17 17
12 8 7 5 4 3 1 1 2 3 4 4 4 6 11 13 13 12 5 1 6 8 7 9 8 12 20 14 9 11 15 21 22 24 25 23 24 24 21 19 20 19 20 23 22 20 20 19 18 17 17 17 17 17 17 18 19 19 18 18 17 18 18 18 18 17 16 15 14 13 12 12 12 11 11 11 11 10 9 9 9 8 8 8 8 8 7 7 9 10 10 12 14 16 17 17 18
9 4 3 4 4 3 2 2 3 5 6 4 5 7 11 14 15 18 20 12 4 6 7 10 14 13 14 12 11 14 22 23 21 22 27 27 24 23 20 19 20 20 21 23 22 19 19 19 18 17 17 17 17 18 18 19 19 19 19 18 18 18 19 18 18 17 16 15 14 13 12 11 11 11 11 10 10 9 8 8 7 7 7 7 7 6 6 7 10 10 11 13 15 16 17 17 18
5 4 2 3 6 4 2 4 5 6 6 7 7 9 11 16 22 21 23 17 1 3 6 17 23 17 8 10 12 12 17 18 25 25 26 29 25 22 20 20 21 20 22 23 22 19 19 19 19 18 17 18 18 18 19 20 20 20 19 19 18 18 19 18 17 16 15 15 13 12 11 10 10 10 10 9 8 8 7 7 6 6 6 6 6 5 6 9 10 11 12 13 15 16 17 17 18
2 3 4 0 2 2 3 4 5 6 6 8 10 13 15 19 26 19 18 18 4 1 4 18 25 16 6 11 11 9 14 17 25 26 27 28 24 22 20 21 21 21 23 23 22 20 20 19 19 18 18 18 18 19 20 20 20 20 20 19 19 18 18 18 17 16 15 14 13 12 10 9 9 9 9 8 7 7 7 6 6 5 5 6 6 6 7 10 11 12 13 14 15 16 16 17 17
4 5 5 1 1 3 3 4 5 6 7 9 11 16 22 26 27 19 19 17 6 2 2 14 21 13 9 17 16 15 19 19 25 25 26 26 23 22 21 22 20 21 24 23 22 20 20 19 19 18 18 18 18 19 20 20 20 20 19 19 19 18 18 17 17 15 14 13 12 11 10 9 8 8 7 7 7 7 7 6 5 5 5 6 7 7 9 10 11 12 13 14 15 15 16 16 16
5 8 6 1 3 4 4 5 5 6 8 11 13 18 25 27 25 23 21 12 3 2 6 14 19 18 17 15 14 20 23 24 27 26 25 24 24 24 24 22 17 18 22 22 21 20 20 19 19 19 18 18 19 20 21 21 20 20 19 18 18 18 17 16 16 15 14 13 11 10 8 8 7 7 6 6 6 6 6 6 5 6 6 7 7 8 10 11 11 13 13 14 15 15 15 15 15
5 10 8 3 3 5 5 6 7 7 9 10 14 23 30 28 26 24 14 7 5 3 6 15 17 22 20 11 13 21 25 26 27 28 27 26 26 25 25 22 17 16 19 20 20 19 19 20 20 19 18 18 19 20 21 21 20 19 19 18 18 18 17 15 14 14 12 11 10 9 8 7 7 6 6 6 6 6 6 6 6 6 6 7 8 9 10 11 12 12 13 14 14 14 14 14 13
5 6 6 4 4 5 6 6 7 8 9 10 12 22 31 29 26 18 7 4 1 5 4 8 16 24 14 6 16 21 25 25 27 30 29 27 26 25 24 22 18 16 15 16 18 19 19 20 20 19 19 19 19 20 21 21 20 19 19 18 18 17 16 15 13 12 11 10 9 8 7 7 6 6 6 6 5 5 6 6 6 6 6 6 8 9 10 11 12 12 13 13 13 13 13 12 12
9 4 5 4 5 5 6 6 7 8 9 8 11 24 30 27 22 11 11 6 6 4 3 11 24 24 10 8 19 22 25 26 29 32 31 28 26 24 23 22 20 17 15 14 17 19 19 19 19 20 19 19 20 20 21 21 19 18 18 18 17 17 15 14 12 11 10 9 8 7 7 7 6 6 5 5 5 5 6 6 6 6 6 6 7 9 10 10 11 11 11 12 12 12 12 11 11
15 10 5 3 4 5 6 6 6 7 8 7 14 24 18 10 7 10 12 6 7 4 6 19 28 20 12 12 16 24 27 28 31 32 31 28 26 24 21 21 19 17 16 15 17 19 18 18 19 19 19 19 20 20 21 20 19 18 18 18 17 16 15 13 12 11 10 8 8 7 7 6 6 7 7 7 6 5 6 6 6 7 6 6 7 8 9 9 10 10 10 10 10 10 11 10 10
20 15 5 3 4 4 6 7 8 9 6 9 18 18 2 5 6 9 6 3 4 4 4 15 25 14 17 18 15 30 31 30 33 31 30 26 24 21 19 19 18 18 17 17 18 19 18 18 19 19 19 19 19 20 21 20 19 18 18 18 17 15 14 12 11 10 9 8 8 7 6 6 7 9 9 9 8 6 6 7 7 7 6 6 6 7 8 8 8 9 9 9 8 9 9 9 9
22 16 4 3 6 4 5 6 7 9 6 10 19 14 2 4 8 4 2 4 5 3 4 12 21 8 25 30 25 38 34 32 34 30 29 25 23 20 18 17 18 19 18 19 20 20 19 18 18 18 18 18 18 19 20 21 19 18 18 17 16 15 13 12 11 10 9 8 8 7 8 8 9 10 10 10 9 7 7 8 8 7 7 6 6 6 6 7 7 7 7 7 7 7 7 7 7
21 14 4 4 7 5 5 6 6 6 6 10 15 11 5 3 6 5 6 8 2 3 7 12 14 8 27 28 28 42 36 35 36 30 29 27 26 22 19 18 19 19 19 21 21 22 20 18 18 17 18 17 18 19 20 21 19 18 17 16 16 14 13 12 11 10 9 9 9 9 9 9 9 9 10 11 10 8 8 8 8 8 7 7 6 6 5 5 5 5 6 6 5 5 5 5 5
16 7 5 7 6 6 6 6 8 7 8 9 6 3 2 2 3 7 6 6 5 3 15 18 13 13 25 23 31 42 37 38 37 34 32 30 28 24 22 21 20 18 19 23 23 21 19 18 18 17 17 17 17 18 20 21 19 19 18 17 16 14 13 12 11 10 10 10 10 9 8 8 8 8 8 10 10 10 9 9 9 8 8 7 7 6 6 5 4 4 4 4 4 3 4 4 4
13 4 5 8 5 7 10 10 14 11 12 10 3 5 5 4 5 4 1 4 9 6 15 23 24 24 26 28 36 38 37 38 36 35 33 32 30 26 25 23 21 19 20 22 20 19 18 19 19 18 18 17 17 18 19 19 19 20 19 18 16 15 14 13 13 12 11 11 9 8 6 6 7 7 8 9 10 9 9 9 8 8 8 7 7 6 6 5 4 4 3 3 2 2 3 3 3
13 9 5 7 7 9 16 18 19 18 19 12 4 1 3 4 8 9 6 4 3 9 14 19 25 30 32 36 38 37 37 36 36 35 33 33 31 27 26 26 24 22 23 22 18 17 19 20 19 18 17 16 16 17 17 18 19 20 19 18 17 16 15 14 14 13 12 10 8 6 5 5 6 6 6 7 7 7 8 8 8 9 8 7 7 7 6 5 5 4 3 3 3 3 3 3 3
11 12 6 6 10 10 19 24 24 27 27 14 3 6 2 3 5 7 4 6 4 4 16 23 30 36 38 38 38 38 39 37 36 35 33 33 30 28 27 26 25 25 25 23 21 19 20 20 18 18 16 15 15 16 17 19 20 20 19 18 16 16 15 14 13 12 11 9 7 5 4 4 4 5 5 3 2 4 6 6 7 8 8 7 6 6 5 5 4 4 2 1 2 3 3 2 3
8 12 12 11 12 9 17 27 28 30 27 18 8 7 8 6 4 8 3 2 2 6 6 25 34 38 41 42 41 40 39 39 38 36 35 33 31 29 29 27 26 27 27 26 24 23 22 21 19 18 15 14 14 16 19 20 20 19 18 17 16 16 14 14 12 10 10 7 5 4 4 4 3 5 3 1 3 4 4 3 4 5 5 5 4 4 3 3 3 2 1 0 0 0 1 2 3
9 9 14 19 20 13 17 26 27 26 21 13 7 1 6 8 4 2 10 9 5 9 3 27 30 29 33 36 42 42 41 40 36 31 27 25 24 26 28 26 26 28 29 27 25 24 23 21 20 18 15 14 15 17 18 20 20 16 15 15 15 14 13 12 11 9 9 8 6 4 5 4 3 4 4 2 1 2 2 1 1 2 2 2 3 3 3 3 4 2 2 2 2 2 2 3 3
14 8 11 17 22 20 25 31 26 25 22 12 6 9 5 6 4 4 17 12 11 11 15 32 32 30 26 21 25 30 32 31 25 18 13 11 12 18 21 19 20 24 25 24 23 23 22 19 20 19 15 14 16 16 16 18 17 13 11 11 12 9 8 10 9 8 8 7 6 5 6 7 5 4 4 2 1 1 2 2 2 3 3 3 4 5 5 5 5 5 6 6 6 6 6 5 5
15 12 12 14 18 22 29 34 29 27 25 19 10 7 6 5 5 5 13 17 21 21 25 32 32 33 31 22 16 15 17 20 18 14 12 12 11 15 18 16 17 17 17 20 19 20 20 19 20 20 16 14 17 17 15 16 14 10 10 10 10 7 6 8 8 8 8 7 6 7 9 8 7 5 5 4 3 3 3 3 3 2 2 5 5 4 5 6 6 6 8 8 8 9 8 7 8
13 16 16 14 16 21 25 27 27 28 21 11 6 3 6 13 7 6 12 23 26 26 30 31 31 32 30 27 22 17 16 18 18 18 16 13 11 16 19 18 18 15 14 16 16 16 18 19 19 18 16 14 17 17 14 14 14 12 11 10 9 7 7 8 8 8 7 7 8 10 9 6 6 5 5 5 5 4 3 3 4 4 3 5 7 6 7 7 8 8 9 10 11 12 11 9 10
15 20 20 17 16 21 24 22 22 26 16 12 6 1 5 13 7 2 12 26 28 28 31 30 30 31 28 25 24 24 22 21 21 19 20 19 18 19 19 18 20 18 15 15 16 18 18 19 20 18 16 15 17 17 13 15 16 13 13 12 10 9 8 9 10 8 7 7 7 9 8 6 5 4 5 5 4 4 3 3 4 4 4 5 6 7 7 7 8 8 10 11 12 13 13 11 11
20 21 18 18 18 19 23 22 19 19 11 15 11 3 5 10 6 7 17 26 28 30 31 29 29 29 28 25 23 23 22 22 21 22 23 21 20 19 18 18 21 21 18 18 17 17 16 17 19 18 17 17 17 16 15 17 16 15 18 16 12 12 11 11 12 10 8 6 6 8 7 6 5 4 5 4 4 3 3 2 3 3 3 5 5 5 6 6 7 7 8 9 10 11 12 11 11
22 19 11 13 16 15 19 19 18 13 5 13 11 2 6 5 5 15 24 27 29 31 31 30 30 30 27 24 23 21 20 20 20 21 23 23 21 20 19 19 21 21 21 21 17 13 13 14 16 17 19 20 18 16 16 17 16 16 20 19 15 15 13 12 13 10 8 7 7 7 6 5 5 4 4 3 4 2 1 1 1 2 3 4 4 4 5 5 5 5 6 7 7 8 9 9 10
18 14 7 8 10 11 17 18 17 11 5 10 10 2 7 3 10 19 26 28 31 30 28 30 30 28 26 23 22 21 22 22 22 21 20 23 24 22 22 23 21 21 20 17 13 12 13 16 17 17 19 19 16 15 14 16 17 17 18 18 17 15 11 11 12 8 7 6 7 6 5 5 4 4 3 2 3 2 2 1 1 1 2 3 3 3 4 5 5 5 6 6 6 7 7 7 8
10 9 6 5 5 5 11 14 13 8 9 15 10 3 6 5 12 20 25 29 31 26 24 28 29 28 26 25 25 25 23 21 21 20 19 23 27 25 26 26 22 19 16 13 12 13 16 19 19 18 18 17 15 14 14 16 18 17 15 16 17 14 11 10 10 8 7 7 7 6 5 5 4 4 2 1 2 3 3 2 1 0 2 4 4 3 4 4 4 6 7 7 7 7 7 7 8
6 7 6 5 5 3 6 11 12 8 9 18 12 3 3 6 13 21 22 24 29 25 21 23 27 28 27 28 27 25 22 20 19 20 22 26 28 27 27 25 22 18 16 15 16 18 20 21 20 19 17 15 14 14 15 17 17 16 14 14 14 12 12 11 9 7 7 6 6 5 5 4 3 3 2 1 3 4 3 1 0 1 2 4 3 3 5 5 5 6 7 8 8 8 8 8 8
5 6 5 5 5 5 4 7 14 13 8 11 11 4 3 5 12 22 22 22 26 23 20 21 24 26 27 28 26 24 23 23 22 21 24 27 29 29 27 24 23 22 21 20 20 21 22 23 21 19 17 15 14 14 14 16 17 16 13 13 12 10 10 10 9 8 7 6 5 4 4 3 3 2 2 3 3 4 3 2 1 2 2 3 4 4 6 6 7 6 7 9 9 9 9 9 9
5 4 4 5 6 6 5 5 9 14 11 8 11 7 5 7 13 21 24 24 25 21 19 20 22 23 25 27 25 25 26 25 25 26 27 28 29 29 27 25 25 25 24 24 24 24 24 24 21 18 18 16 15 15 14 15 16 15 14 13 13 11 10 9 9 8 7 6 5 4 3 3 3 3 3 2 3 3 3 2 2 3 3 4 5 5 6 7 8 8 9 10 9 9 9 9 10
5 5 4 4 5 6 8 7 6 13 15 10 10 8 7 9 11 17 23 25 23 20 20 21 21 22 23 25 24 25 25 24 24 26 28 28 28 28 28 27 27 27 26 26 26 25 25 24 22 20 18 17 16 16 16 15 14 14 15 15 14 13 12 10 9 8 7 5 5 4 3 3 3 3 3 3 3 3 3 3 3 3 4 5 5 6 7 7 8 9 10 9 9 8 8 8 9
6 7 5 5 6 6 8 10 9 13 15 12 10 9 11 11 10 13 19 23 22 21 22 21 21 21 22 24 23 23 23 22 22 23 25 26 26 27 27 27 27 26 26 26 26 25 24 24 23 22 20 19 18 17 17 16 15 15 16 16 14 14 13 11 10 9 8 6 5 4 3 3 2 2 4 4 3 2 3 3 3 3 5 6 6 6 7 8 9 9 9 9 8 6 6 6 7
10 7 7 8 8 6 8 11 12 12 13 12 12 9 12 14 11 12 18 22 19 19 20 20 22 22 23 23 22 21 22 22 20 20 21 24 26 26 25 26 26 26 26 26 26 25 24 23 24 23 22 21 20 18 17 16 16 16 17 17 15 14 12 11 11 9 7 6 5 5 4 3 3 2 3 3 2 2 3 3 5 6 7 7 7 7 7 7 8 9 9 9 8 5 4 5 6
12 8 8 9 9 8 9 11 12 13 11 10 13 9 11 14 11 12 18 17 14 17 19 20 22 23 23 24 22 22 23 23 21 20 21 23 24 24 24 27 27 27 28 27 26 25 24 23 23 23 22 21 20 18 17 16 16 16 17 17 16 15 13 11 10 9 7 7 6 5 5 5 5 4 3 3 4 6 7 7 9 9 8 8 9 9 7 7 8 9 9 8 7 5 4 4 6
11 7 6 6 9 8 10 14 11 12 9 9 15 10 9 12 11 10 13 13 14 20 22 24 27 25 24 24 24 25 25 25 23 22 22 22 22 23 25 27 27 27 27 25 25 25 24 23 23 22 21 20 21 19 18 17 17 16 16 15 14 14 13 11 11 10 8 7 8 8 7 8 7 6 6 7 9 10 10 10 11 10 9 9 10 9 9 10 10 9 9 9 7 5 3 4 6
9 7 6 4 8 9 8 13 11 11 10 10 14 7 7 9 8 7 9 14 17 20 25 27 29 27 25 24 24 26 26 26 25 22 22 21 21 23 25 26 25 26 26 25 24 24 23 23 22 22 21 20 20 21 19 18 17 17 16 14 13 13 13 12 11 10 8 9 11 11 9 8 8 10 11 11 11 11 10 11 11 11 11 11 10 10 10 11 11 10 10 11 10 8 6 5 3
9 10 8 6 8 10 10 10 8 10 10 10 12 6 4 8 9 6 7 12 15 19 24 23 24 26 26 24 23 25 27 28 27 25 23 22 22 23 24 24 24 23 24 24 24 23 23 23 22 22 21 20 21 21 20 18 17 17 16 15 15 15 14 13 13 13 12 12 11 10 9 10 12 13 13 12 12 12 11 11 11 11 12 12 12 11 11 12 12 12 12 12 13 12 11 8 5
8 11 11 11 12 8 11 12 5 8 7 7 12 7 1 5 10 10 7 9 10 15 19 19 23 26 26 25 23 23 25 27 28 27 24 22 23 24 23 24 24 23 23 23 23 24 24 24 23 22 22 21 21 20 19 18 18 16 15 15 16 17 17 16 16 16 14 12 10 11 13 13 13 14 14 13 13 12 12 12 12 12 12 13 13 12 12 12 12 13 14 13 14 14 14 13 10
7 9 10 14 16 12 12 13 6 6 6 6 9 8 2 4 6 10 11 11 11 12 13 17 24 23 21 24 25 24 24 24 25 25 23 22 24 25 25 25 25 25 23 23 24 25 24 24 23 23 22 22 21 19 18 18 17 16 14 15 16 17 18 17 16 14 13 12 12 13 14 14 14 14 15 14 14 14 14 13 13 13 13 14 13 13 12 12 12 14 15 15 15 15 16 15 14
7 9 10 13 14 15 15 10 5 5 5 5 6 9 6 4 5 8 12 13 11 11 12 15 21 23 23 24 26 26 25 24 25 23 23 24 24 24 25 25 26 25 24 25 27 26 25 25 24 23 22 21 20 19 19 17 16 16 15 15 16 15 15 16 16 15 14 14 13 13 14 14 14 15 15 16 15 15 15 14 14 13 13 13 14 13 12 12 13 14 14 15 15 15 15 14 15
9 11 12 11 12 14 13 7 4 6 6 5 7 8 7 4 6 7 11 12 10 12 13 13 19 24 27 25 24 25 25 24 24 24 25 25 24 24 25 26 27 26 25 27 27 27 26 26 25 23 23 22 20 19 19 17 16 16 16 16 16 15 14 16 17 15 13 12 12 13 14 15 15 16 16 16 16 15 15 14 12 12 12 12 12 11 10 10 10 10 9 9 9 8 8 10 11
10 12 12 11 11 11 8 5 4 6 7 7 9 9 6 3 6 8 9 10 10 11 11 12 20 27 30 27 25 26 26 24 23 23 26 26 26 26 27 29 29 27 27 27 27 27 27 27 26 25 23 23 21 19 19 18 17 16 16 16 17 16 15 15 15 12 10 10 11 13 14 15 16 16 15 15 15 13 13 11 9 8 8 8 7 5 4 4 5 4 3 2 3 3 4 5 6
10 12 11 10 9 5 2 3 3 4 4 7 9 11 7 4 6 8 9 12 13 13 12 12 19 27 29 28 27 27 27 26 24 25 26 26 27 28 30 31 30 29 29 29 29 28 28 27 27 26 24 24 22 21 20 20 19 18 17 16 15 14 13 13 11 9 9 9 11 13 15 16 16 14 12 11 10 9 8 7 5 4 4 3 2 1 1 2 2 2 2 3 4 4 4 5 6
8 10 8 7 4 2 2 2 1 2 5 5 8 9 8 5 6 9 10 13 17 17 16 16 18 23 27 27 27 27 28 27 27 27 26 27 28 29 31 31 31 31 30 29 28 27 27 26 26 25 23 23 22 21 20 19 19 17 16 15 13 12 12 11 11 11 11 11 13 15 15 15 12 9 7 5 6 6 5 4 3 3 3 2 1 1 1 2 3 3 3 3 4 4 5 6 8
9 9 6 5 3 2 3 3 1 3 4 6 10 8 6 4 8 15 12 10 16 17 20 24 23 24 27 28 28 27 30 30 29 29 29 30 31 30 32 32 31 30 29 28 26 26 25 23 23 23 22 21 20 20 18 17 17 16 16 15 14 14 14 13 13 13 14 14 15 15 14 12 8 6 4 5 6 5 4 4 4 3 3 2 2 1 0 1 3 3 4 4 3 4 5 7 8
12 9 6 5 4 4 5 3 2 2 4 5 8 4 4 3 8 19 17 13 19 24 29 34 34 33 33 32 31 30 31 32 31 32 33 34 33 32 33 32 31 29 27 26 25 24 24 23 22 22 22 21 20 19 18 17 17 17 17 17 16 16 16 15 16 16 16 16 15 15 13 10 6 3 7 8 6 5 5 5 4 3 3 2 2 1 1 1 2 3 4 4 4 5 6 8 9
11 8 5 4 4 5 4 2 4 3 2 1 3 3 4 4 6 17 20 18 25 32 34 36 38 40 39 35 33 33 34 34 34 35 35 34 34 33 33 31 30 29 27 26 25 23 23 23 23 22 21 20 19 19 19 19 19 19 19 18 17 17 17 17 17 17 18 17 16 15 13 9 4 7 9 6 4 5 5 4 4 3 2 2 1 2 2 1 2 3 4 4 5 7 7 8 10
8 7 5 5 4 5 4 3 5 6 3 1 0 1 3 3 4 13 18 17 22 29 31 32 33 36 37 34 34 35 35 35 36 36 35 34 33 33 32 31 29 28 27 26 24 22 22 21 21 20 19 18 17 18 19 20 20 20 19 19 19 18 18 19 18 18 19 18 17 15 12 6 8 9 7 5 4 5 5 4 4 3 3 2 2 2 2 2 3 3 4 4 6 8 8 9 10
6 6 5 6 5 5 5 1 0 5 4 3 2 2 1 2 2 6 15 17 17 21 24 28 31 33 34 34 34 35 36 36 37 37 36 34 34 33 32 30 29 28 26 24 22 20 20 19 18 17 16 15 15 15 17 19 20 20 20 20 20 20 19 20 20 19 19 18 15 12 7 9 11 7 6 6 6 5 5 5 4 4 3 2 2 2 2 2 3 3 4 5 7 9 9 9 10
5 5 5 5 5 4 4 2 1 4 3 4 2 5 3 5 1 2 9 17 16 16 18 22 27 30 30 31 33 35 36 37 36 36 36 34 34 33 31 29 28 26 24 22 20 19 18 17 16 15 14 13 13 14 15 16 17 18 18 19 19 20 20 20 20 20 18 14 10 9 11 12 9 7 7 7 7 6 5 4 4 4 3 2 2 2 3 3 3 4 5 6 8 8 8 9 10
4 6 5 5 5 3 2 4 3 4 3 3 2 6 4 5 5 4 7 15 16 16 17 19 22 25 26 29 31 33 34 36 36 36 36 35 33 32 31 29 27 25 22 21 20 18 17 15 13 13 13 12 13 13 14 15 16 16 16 16 16 16 16 15 14 14 13 12 13 14 13 12 9 8 8 8 7 6 5 4 3 3 3 3 3 3 4 4 4 5 6 7 8 8 8 9 10
6 6 6 5 5 3 3 4 4 5 4 3 2 3 3 4 9 12 13 16 18 17 17 17 20 25 29 31 32 34 36 36 36 37 36 35 33 33 32 30 28 25 23 23 21 18 16 15 13 13 13 12 13 14 15 16 16 15 15 15 15 14 12 10 10 12 14 15 14 13 13 12 10 10 9 7 6 5 4 3 2 2 3 3 3 4 5 6 6 7 7 8 9 9 9 10 10
5 5 5 5 4 4 3 2 3 5 4 4 3 2 4 4 8 15 18 19 20 20 18 16 20 27 31 33 35 36 37 37 37 38 36 35 34 33 32 30 28 26 25 25 23 19 16 15 14 13 12 12 13 13 14 15 16 16 15 15 14 14 13 14 16 17 16 15 13 13 13 12 11 10 8 7 6 5 4 3 3 3 3 4 4 4 5 7 9 10 10 10 11 10 9 11 11
5 3 3 5 4 5 3 1 2 4 4 5 4 2 5 4 4 13 19 19 19 22 21 17 22 30 32 34 37 37 38 39 39 38 37 36 36 35 33 31 29 27 26 26 23 19 16 14 14 13 13 13 13 13 13 14 16 16 16 15 15 15 15 15 16 16 15 14 13 14 14 13 12 11 8 7 6 5 5 4 4 4 5 5 5 5 5 6 9 11 12 12 12 11 11 13 13
Wind_Direction
308 312 321 328 333 333 350 13 339 261 286 262 259 280 273 258 266 276 290 314 329 47 51 45 69 89 100 104 103 91 74 109 152 140 137 166 173 182 187 183 189 192 189 183 173 165 158 158 159 153 140 129 125 123 124 125 128 129 129 129 130 131 130 127 125 125 124 120 116 112 110 108 106 106 105 105 103 103 102 99 94 85 80 73 65 60 59 67 69 68 74 85 95 103 107 109 108
304 308 320 324 328 333 328 349 346 290 332 285 278 260 268 280 277 283 297 16 53 24 29 41 84 99 107 107 102 85 59 79 117 119 130 160 169 180 192 184 189 191 187 183 174 165 157 154 156 151 140 131 128 127 127 128 130 131 131 131 132 133 131 128 126 126 122 118 115 111 109 107 107 106 104 105 104 103 101 100 95 87 81 71 64 56 51 62 69 67 72 84 96 104 109 111 110
298 305 318 324 330 322 296 319 166 262 300 265 277 271 276 287 272 284 300 100 84 66 38 48 72 97 109 98 88 97 97 106 118 125 134 165 171 172 184 179 185 192 186 183 174 164 156 151 152 148 140 133 130 131 131 131 132 133 133 134 134 134 132 130 128 126 121 116 113 111 110 109 108 108 105 104 104 103 102 101 96 87 80 72 64 52 44 57 73 72 75 86 97 106 111 113 113
293 305 319 331 338 319 283 238 197 231 256 246 265 269 274 275 272 282 134 123 100 98 71 68 57 73 99 97 96 105 125 131 130 134 140 173 181 172 171 172 181 185 182 181 175 162 155 149 148 147 141 136 132 134 133 134 134 134 135 135 136 134 133 132 131 127 120 116 114 112 111 111 110 110 107 105 105 102 100 99 94 84 77 72 62 44 37 60 83 81 81 91 100 107 111 114 114
289 306 323 330 337 316 309 194 245 233 227 242 263 264 272 271 283 298 300 341 95 84 61 97 97 80 88 99 113 115 133 138 139 141 151 174 183 173 165 173 182 180 180 178 171 162 154 147 146 147 141 137 135 136 136 136 135 136 137 137 136 134 134 134 132 126 121 119 117 115 113 113 113 112 108 106 104 100 99 95 88 82 74 68 54 36 38 71 92 90 88 96 103 108 112 116 116
286 291 293 264 262 289 300 242 255 260 239 242 265 273 282 287 296 300 300 296 132 88 51 103 122 106 86 84 93 127 141 142 146 152 164 169 174 174 165 176 185 180 180 174 168 163 153 146 145 144 142 139 137 138 138 138 137 138 138 137 135 133 135 135 132 125 123 122 119 118 116 115 114 113 109 106 102 97 95 88 81 76 68 59 49 41 54 89 101 96 97 101 106 110 114 117 119
285 285 280 238 258 261 226 229 235 254 243 239 258 270 275 287 291 296 298 290 157 84 78 110 119 109 97 104 85 118 149 151 151 159 169 168 171 171 167 181 187 178 176 171 165 161 153 146 144 144 143 140 140 141 141 141 140 140 140 138 136 135 135 133 130 126 125 123 121 120 117 116 114 112 109 103 95 89 84 74 66 59 53 56 63 68 84 105 108 102 104 107 110 113 116 120 122
186 263 276 284 261 229 204 229 234 239 245 245 250 259 261 268 276 286 287 284 308 267 133 120 119 96 90 121 83 111 153 153 154 164 168 168 171 167 174 188 183 168 170 169 163 161 152 146 145 145 144 142 143 143 143 143 142 143 141 139 136 134 133 132 130 128 127 124 123 122 119 116 112 109 103 94 83 73 65 54 46 45 52 69 86 95 104 114 113 109 110 111 114 117 119 122 125
176 227 259 274 226 262 237 238 243 239 252 255 255 257 258 257 262 266 268 285 330 303 56 109 119 105 98 103 94 120 141 149 153 162 165 164 166 167 178 186 180 164 166 167 163 161 152 146 146 144 144 144 144 144 145 145 145 144 141 138 135 132 132 133 131 130 128 127 127 123 120 112 107 102 91 80 70 59 48 42 45 56 73 88 104 110 116 120 117 114 113 115 117 120 122 124 128
212 218 230 234 209 263 252 256 255 249 257 255 261 259 261 259 256 254 253 268 273 316 30 96 113 116 114 101 106 126 136 147 151 156 160 158 160 169 175 179 183 167 162 164 163 162 154 148 145 144 144 144 146 146 147 147 146 144 141 139 135 134 134 133 132 132 130 130 128 122 116 108 101 91 78 67 60 53 43 45 61 74 89 103 115 119 124 124 120 118 116 118 120 123 125 127 130
224 213 216 238 214 240 235 249 250 254 258 256 262 259 263 262 257 254 244 246 238 335 62 103 110 116 113 102 118 134 144 151 155 153 155 158 163 173 177 177 179 165 161 164 166 166 157 150 145 144 144 145 147 147 149 149 147 144 141 138 136 135 134 135 134 132 132 129 128 120 112 103 93 78 65 56 51 45 42 51 69 79 96 114 124 126 130 128 123 121 119 121 122 124 127 129 131
227 207 200 218 207 221 226 236 248 256 253 256 260 259 261 258 258 250 199 196 166 30 45 115 136 129 107 104 132 144 152 155 158 155 158 163 169 176 180 177 169 166 170 167 169 172 164 154 146 142 143 145 147 148 150 148 147 145 141 138 137 136 135 136 135 132 131 127 123 114 105 95 82 69 56 48 44 41 46 56 70 81 99 121 131 132 134 131 127 125 122 123 123 125 126 129 129
220 211 186 209 206 213 236 239 253 263 258 254 252 262 263 258 258 216 155 154 117 49 45 132 147 133 102 131 143 153 155 159 159 158 164 164 170 178 180 174 166 172 177 170 173 175 168 159 148 142 143 145 147 148 149 149 149 145 140 139 137 137 137 136 135 131 129 124 118 108 99 89 76 64 51 44 42 46 53 61 74 84 103 127 136 136 138 135 133 129 126 126 125 126 125 126 127
216 224 207 222 213 207 233 238 248 253 257 256 254 262 266 284 274 149 132 131 127 128 110 141 152 131 114 131 149 164 158 161 160 161 168 165 172 178 175 172 172 177 174 169 172 175 171 162 152 144 144 146 148 148 149 151 149 145 140 140 139 138 138 137 134 130 128 121 115 106 95 88 77 68 61 55 52 55 61 69 79 87 104 128 140 141 142 140 139 134 130 130 129 128 126 127 128
215 228 228 242 239 219 224 223 233 241 249 249 254 256 248 65 89 101 116 136 89 114 87 155 164 146 152 157 173 172 162 163 162 164 166 164 174 176 174 176 177 177 172 170 171 175 174 166 155 147 146 146 149 150 151 152 148 145 142 140 139 139 139 137 134 130 126 118 111 103 96 92 84 78 71 64 60 62 70 78 83 91 104 124 144 147 147 147 145 140 136 134 134 132 130 131 131
215 224 240 239 242 239 228 227 230 237 244 243 249 244 166 121 130 79 139 134 28 17 12 168 175 181 170 171 177 171 164 164 161 161 161 160 169 171 173 177 177 174 172 173 173 175 174 168 157 148 147 147 151 153 154 152 147 145 143 141 140 139 139 136 134 131 125 117 112 108 102 98 88 79 74 68 65 70 80 85 87 92 101 117 142 153 153 155 155 150 144 141 142 140 137 137 136
216 218 239 237 235 234 230 238 239 239 248 256 260 239 192 185 154 129 134 125 37 13 57 149 180 186 174 177 174 166 161 160 157 157 157 158 164 165 166 170 170 167 168 173 175 173 170 165 156 148 147 149 153 155 155 151 147 146 144 143 142 141 141 139 136 131 126 119 116 112 102 96 88 75 72 68 66 77 87 89 91 95 102 112 133 153 162 165 168 161 154 153 150 148 145 142 141
217 205 221 231 228 229 226 236 250 256 266 270 295 289 199 265 176 139 141 144 174 101 81 115 131 141 166 172 163 160 157 157 158 157 157 159 163 163 159 163 164 161 162 170 174 171 168 163 153 150 148 150 154 155 156 152 150 150 146 144 143 142 142 141 138 132 129 125 121 116 103 94 88 79 78 72 70 79 85 87 90 96 103 108 122 145 163 169 178 178 172 168 161 163 159 149 147
223 196 207 227 222 236 242 248 253 258 272 275 20 14 6 6 343 31 26 167 163 130 89 107 111 121 144 151 155 156 154 156 159 160 160 160 164 164 158 160 165 157 154 163 168 165 167 163 153 152 150 150 154 155 158 156 153 150 145 143 142 142 142 141 139 133 129 126 125 120 113 103 88 84 90 82 73 76 79 78 81 86 92 102 112 123 148 165 178 186 192 198 195 201 187 181 177
228 218 216 225 215 242 250 251 258 263 268 275 94 90 348 30 331 346 358 330 172 138 125 120 116 126 138 146 154 153 153 157 160 163 162 161 166 167 162 164 166 158 156 162 161 157 162 161 153 151 147 148 152 154 157 155 151 147 145 144 144 144 142 142 140 137 132 129 130 125 119 107 82 71 83 80 72 79 79 73 73 72 72 84 105 112 122 138 155 169 179 206 221 229 221 229 224
224 222 227 219 209 226 245 252 264 266 266 276 136 158 150 76 315 306 314 322 328 138 159 156 142 142 145 149 155 155 158 160 163 165 163 163 167 168 165 167 167 163 164 167 163 155 155 155 149 145 140 143 150 152 150 147 146 145 146 147 146 145 142 145 144 142 139 133 136 133 122 110 79 62 63 61 84 97 84 79 83 80 75 73 87 106 107 104 117 137 134 179 220 224 219 272 303
227 233 230 229 229 224 235 244 252 257 266 279 257 182 152 138 263 270 305 12 5 334 197 161 152 152 154 157 158 159 162 163 167 168 166 168 169 169 167 167 169 170 171 171 166 158 156 155 146 138 130 130 140 146 145 144 144 144 147 147 147 146 145 148 148 149 148 145 146 138 124 111 89 91 99 179 181 139 100 92 98 93 94 80 69 90 108 74 66 107 119 157 26 329 235 280 322
225 244 231 226 234 247 252 248 250 262 280 292 288 301 134 132 278 304 60 49 57 7 144 150 144 146 152 157 159 162 164 164 165 164 165 166 167 169 167 169 171 172 175 174 167 159 159 156 137 125 118 120 131 143 148 147 142 139 145 145 147 151 151 151 152 153 156 160 151 131 129 126 132 144 159 196 156 118 94 106 93 64 72 66 40 17 358 10 9 347 326 302 313 323 292 289 306
221 237 236 224 225 235 253 259 264 272 283 295 343 358 30 87 313 52 76 77 86 79 137 150 148 146 147 148 152 157 158 157 151 137 122 106 124 152 160 169 169 169 175 171 163 157 154 142 125 116 113 121 130 136 144 146 138 129 136 144 144 147 152 152 154 154 163 176 158 143 158 161 172 184 194 229 311 293 298 302 350 8 352 342 350 354 338 334 339 326 313 304 302 299 283 269 260
224 228 233 228 226 228 240 252 261 266 270 274 294 350 350 325 313 51 89 104 105 115 133 141 146 148 150 149 142 135 130 139 144 144 129 90 93 142 155 161 159 160 161 156 154 149 141 133 129 126 122 122 123 122 128 138 142 138 139 150 144 133 147 152 155 163 177 192 177 172 187 183 178 191 211 218 223 236 260 270 287 317 303 292 297 312 298 293 305 297 283 282 285 285 281 260 243
218 225 232 226 230 237 241 246 249 256 256 243 272 350 312 293 309 57 100 112 114 126 130 136 143 143 149 153 154 148 139 148 159 164 151 137 145 154 155 154 152 147 137 140 142 131 125 129 132 134 135 130 126 126 134 146 155 156 148 155 156 151 168 168 167 179 191 205 206 196 199 197 182 197 221 218 218 233 251 250 251 257 256 260 266 273 274 277 285 283 277 279 278 278 285 272 255
220 221 230 230 229 238 249 256 249 251 239 172 160 304 264 266 258 105 118 122 125 129 129 140 144 144 149 150 156 158 158 163 163 157 147 153 160 152 150 150 148 143 134 131 124 117 123 136 140 145 149 145 140 140 151 159 160 168 164 163 164 167 180 177 177 200 220 218 211 194 190 193 188 211 229 223 228 242 254 254 250 251 257 259 265 272 277 281 282 287 285 281 278 277 283 284 277
238 229 225 229 229 234 244 255 255 253 232 175 165 167 237 249 230 148 138 135 135 131 130 142 145 146 152 151 155 157 158 157 155 154 149 152 157 152 150 148 145 143 139 134 126 123 134 150 153 154 154 150 149 150 161 169 170 177 175 171 169 174 182 184 192 215 219 191 174 170 176 189 193 210 224 230 244 255 246 239 258 265 270 271 279 285 285 285 283 292 291 284 284 283 282 286 288
247 244 230 222 223 232 235 242 253 252 209 177 161 135 254 243 137 138 144 142 140 137 135 143 146 149 151 151 152 155 160 154 148 151 148 150 159 162 154 146 145 140 136 137 140 141 143 155 155 151 153 154 157 162 170 175 176 176 172 175 183 188 193 198 206 208 187 169 170 173 177 190 196 209 223 232 228 231 216 190 267 288 299 285 286 302 304 299 288 297 300 294 295 294 293 291 289
248 248 245 224 219 227 226 231 247 243 197 184 153 157 249 164 133 144 144 144 140 138 140 143 146 147 146 147 147 149 156 153 149 148 146 152 158 161 153 146 146 142 139 138 146 151 147 156 157 154 158 159 164 171 174 174 176 177 172 177 187 192 193 199 206 197 180 186 188 182 175 183 193 207 219 227 198 159 131 127 203 256 323 307 305 329 326 318 309 310 309 303 302 303 307 302 293
240 244 246 218 215 227 213 214 235 234 202 197 167 182 233 135 138 147 145 149 143 137 141 142 143 145 144 145 146 148 151 152 151 149 153 159 157 157 154 149 149 147 143 143 148 145 145 157 164 168 167 166 169 170 171 173 177 180 174 174 179 180 174 182 198 197 194 194 188 181 174 183 189 198 203 193 190 169 155 146 168 275 359 325 322 332 315 311 308 312 316 316 316 314 317 313 305
216 225 232 209 205 220 207 200 216 222 191 191 186 193 184 128 142 150 150 150 144 139 140 141 142 145 146 145 146 145 146 147 148 149 154 159 158 157 156 154 154 151 149 154 153 144 147 158 165 170 169 167 172 169 170 175 179 179 174 168 168 170 166 171 186 189 183 179 182 179 169 180 177 179 198 187 201 197 182 160 211 348 352 315 313 310 303 304 305 316 323 324 322 318 320 316 311
219 207 204 208 200 194 216 212 209 207 188 188 195 191 133 140 149 150 154 148 138 135 134 138 140 140 144 146 146 144 142 143 146 148 151 157 159 158 158 157 154 154 158 161 157 151 152 154 158 163 163 163 170 173 175 178 180 177 169 164 164 167 164 164 170 172 167 164 173 171 160 173 153 153 196 195 201 210 200 181 250 303 312 296 303 311 307 306 310 319 321 318 315 313 315 313 313
225 206 186 212 202 178 206 242 214 192 190 196 198 199 146 154 151 144 151 146 134 132 132 134 134 135 142 145 145 144 143 141 141 146 152 157 160 156 154 154 153 155 159 160 157 156 153 150 155 160 158 160 169 175 176 177 178 171 161 161 164 165 161 158 158 160 163 163 168 164 155 157 147 165 199 207 220 235 233 211 262 291 299 297 301 308 305 307 312 312 310 310 308 309 313 313 315
206 194 181 211 210 194 197 223 222 185 190 200 196 194 143 139 146 139 147 145 134 132 135 133 130 132 140 143 141 140 140 138 138 146 153 157 156 153 151 152 153 155 158 159 156 155 152 151 158 160 157 161 171 178 176 171 172 168 162 163 165 162 159 155 151 155 162 165 163 152 143 152 160 181 194 204 219 229 237 255 278 283 289 294 297 300 300 302 302 299 302 304 303 308 312 314 316
212 194 187 202 211 218 203 209 219 188 186 199 196 179 150 147 153 144 144 143 135 132 133 130 129 132 137 140 137 133 135 137 139 145 152 154 154 152 151 151 153 156 159 158 156 155 156 158 160 162 160 160 169 179 176 170 170 171 166 165 164 159 155 151 151 157 161 157 149 134 132 159 179 190 192 199 212 221 230 262 284 268 268 275 280 285 290 293 288 287 295 299 298 304 307 310 313
232 205 197 206 211 231 214 212 218 190 180 198 199 175 156 156 156 149 141 137 134 135 135 132 132 134 136 136 134 131 134 137 137 138 143 150 154 155 153 153 157 161 160 159 159 159 160 163 164 164 160 159 167 176 177 173 172 173 168 164 161 153 152 153 151 151 148 140 134 136 146 163 186 190 193 201 202 204 208 229 238 237 245 251 259 268 277 285 284 285 292 296 296 299 306 309 308
243 221 205 202 206 230 229 226 219 189 176 190 197 188 162 157 152 148 141 137 142 144 138 132 133 136 137 138 133 130 135 139 137 136 140 148 156 157 154 158 164 162 159 161 162 161 162 164 166 164 159 158 163 171 178 175 170 168 165 163 158 149 149 148 143 138 136 137 138 148 152 151 167 173 173 191 201 203 206 217 226 232 242 247 253 258 263 266 270 277 281 281 285 295 309 308 309
247 236 220 201 196 215 235 244 233 189 170 179 197 195 154 151 147 146 142 137 147 148 141 138 140 140 140 140 134 131 136 140 140 140 144 153 159 159 158 163 167 162 161 164 162 162 162 163 165 163 159 159 161 167 174 172 165 162 159 161 159 149 144 140 139 136 136 149 158 160 151 142 157 179 190 203 211 213 215 221 226 232 239 245 250 255 258 261 266 272 275 274 274 277 278 287 314
246 234 232 233 202 194 211 246 241 189 170 170 184 171 122 138 129 131 136 131 138 141 140 142 145 143 139 137 135 136 138 142 147 145 146 155 161 163 165 167 168 165 166 166 162 161 162 164 165 161 160 162 162 164 167 166 163 160 158 156 153 148 144 143 142 139 151 173 170 163 159 161 184 205 210 212 214 216 222 227 230 234 237 243 249 253 257 263 271 274 275 279 279 276 268 267 302
244 234 228 241 229 202 192 234 234 177 176 163 150 108 98 153 137 139 138 127 130 129 130 132 134 134 130 128 134 141 146 152 158 156 151 155 161 166 170 171 172 171 170 166 162 163 164 165 165 162 161 163 164 164 163 164 164 163 161 155 151 151 151 151 151 155 170 180 173 172 185 199 211 220 224 224 220 219 222 229 236 239 242 247 249 252 256 261 270 275 276 281 284 286 282 275 272
246 237 227 235 249 236 202 218 195 149 198 178 137 114 270 190 150 154 147 130 134 128 124 120 120 124 124 129 138 147 153 159 164 165 161 159 163 166 168 171 175 174 170 166 164 166 166 165 164 162 160 162 165 164 161 162 163 163 164 160 156 155 153 154 157 162 171 175 182 197 206 211 219 228 234 237 237 234 229 230 236 241 247 250 250 252 255 260 268 274 278 281 283 286 285 283 275
241 231 225 233 247 260 242 226 177 149 208 193 144 129 168 229 174 167 156 143 147 137 124 119 119 121 128 142 153 155 156 159 161 164 165 166 168 169 167 167 172 173 170 166 165 167 166 164 164 163 162 164 165 163 161 161 161 162 165 163 159 157 157 156 157 165 175 183 195 208 216 220 225 233 239 244 248 249 247 245 242 243 249 253 255 256 258 264 270 275 281 284 284 284 284 285 282
237 233 227 233 237 249 259 246 192 169 181 190 171 128 125 211 203 177 159 142 143 140 129 122 122 129 143 153 159 159 159 159 158 160 166 170 169 169 168 166 170 172 168 167 165 165 165 164 165 165 164 165 163 161 160 160 162 164 163 161 157 158 160 157 159 171 183 193 203 214 225 231 234 239 242 246 251 253 256 257 250 244 247 254 261 267 272 274 274 275 279 282 286 287 285 285 285
230 238 234 238 237 239 252 264 215 165 150 199 203 141 131 185 189 172 156 147 151 146 137 129 129 143 155 157 158 159 159 159 160 161 163 166 165 164 165 164 166 167 165 164 163 162 163 163 164 164 162 160 159 159 158 158 163 165 162 163 162 158 158 158 164 176 188 200 214 227 235 237 239 241 243 248 251 252 255 256 253 248 250 258 268 278 282 276 272 270 271 280 291 295 292 288 289
216 235 243 242 240 240 241 242 213 158 157 201 203 167 140 154 181 172 154 160 168 148 137 136 141 155 164 161 160 161 156 155 159 158 158 159 161 162 162 162 163 163 161 160 159 158 159 160 160 159 155 155 156 157 158 155 156 158 158 162 165 161 160 164 171 184 199 211 225 237 241 240 240 242 245 247 244 246 250 247 248 253 251 256 265 272 266 260 269 272 273 323 340 330 311 307 309
202 226 247 245 240 255 257 214 175 152 197 210 192 178 159 157 193 179 171 178 169 147 141 144 151 164 170 163 159 158 152 152 156 156 157 160 162 162 163 163 162 159 155 153 153 153 153 155 158 156 153 154 156 158 159 157 156 158 159 161 166 166 168 176 185 198 207 216 228 236 242 243 242 240 240 241 234 229 233 229 227 231 228 228 218 164 174 255 307 339 16 17 6 349 339 338 338
208 218 231 238 244 294 312 307 100 170 245 231 187 185 177 176 197 198 198 178 161 150 149 153 160 169 169 160 156 156 152 152 156 156 159 164 164 161 161 162 160 155 152 151 151 152 153 154 157 157 155 157 160 161 163 164 165 169 171 172 176 181 190 199 202 204 204 211 221 231 240 244 245 245 237 222 208 202 202 201 191 183 182 173 150 120 141 300 337 8 22 16 6 354 349 348 349
220 219 207 204 194 198 233 255 196 199 253 211 176 188 210 193 182 191 195 170 156 152 152 157 160 164 165 160 158 158 154 155 158 157 159 163 161 158 159 159 157 155 154 154 154 156 157 157 162 163 161 162 166 167 171 174 177 183 187 190 194 199 205 205 202 204 205 209 219 229 237 240 248 253 205 166 173 176 168 167 159 155 155 144 130 105 64 330 352 13 28 26 13 3 359 357 1
216 214 179 172 161 173 212 216 165 206 277 209 164 166 222 218 179 179 178 169 156 150 155 160 159 162 165 163 160 159 159 160 160 158 157 159 158 157 159 158 158 158 157 158 159 162 163 163 168 170 167 169 173 175 180 183 186 189 192 197 200 202 204 200 198 201 201 208 219 226 233 243 250 206 151 150 163 155 145 148 143 142 143 133 130 113 85 10 5 28 36 30 19 19 15 9 13
215 212 164 184 178 161 192 178 157 182 277 235 120 93 192 211 194 175 170 166 152 149 158 160 159 163 163 160 159 159 162 162 161 159 158 159 160 158 158 158 159 158 158 161 164 166 167 166 170 172 169 173 178 182 187 190 192 193 192 195 197 197 199 199 199 201 205 212 217 223 237 244 206 149 140 148 156 133 131 140 135 131 124 116 109 85 71 34 18 35 38 28 25 29 29 26 27
215 209 176 221 215 143 148 170 168 155 129 255 138 107 219 218 180 159 156 157 148 145 151 152 156 161 157 155 158 160 163 163 161 160 158 160 162 159 158 158 158 158 159 163 166 168 170 169 171 173 173 176 184 189 193 194 196 195 192 193 194 195 198 202 204 208 213 217 218 225 235 205 143 133 132 138 135 123 128 135 128 121 110 101 90 71 65 34 21 38 44 37 39 44 45 42 39
199 202 194 221 210 139 122 172 251 97 116 245 219 117 343 37 61 124 134 142 143 140 143 148 155 156 152 154 158 160 163 162 161 162 159 161 163 161 160 160 160 161 162 163 168 172 175 174 171 170 169 171 177 185 191 193 197 197 195 195 197 200 204 208 211 213 218 221 219 217 190 137 127 126 123 125 130 131 132 130 124 122 116 103 96 88 76 55 47 58 61 57 57 59 56 48 44
178 193 213 219 203 169 119 127 334 78 125 256 196 153 150 112 69 325 118 130 140 140 141 148 153 154 153 155 159 162 162 160 161 163 162 162 163 162 162 163 164 164 164 165 172 176 177 174 169 163 159 158 161 169 177 185 189 191 193 196 201 206 209 211 213 215 217 211 188 154 130 125 128 127 125 127 134 139 138 139 137 132 130 121 115 110 98 85 77 75 74 71 70 68 59 50 49
209 177 195 194 175 200 165 144 165 135 146 280 199 165 165 136 163 210 139 135 142 144 144 150 157 157 155 155 158 160 159 160 161 163 164 163 162 163 163 164 165 166 167 170 173 176 176 173 168 160 155 152 152 158 166 172 177 181 186 190 194 198 200 202 202 195 182 158 140 132 129 133 135 132 134 138 145 150 151 154 147 142 146 134 123 122 112 100 88 84 83 78 75 73 61 53 54
241 189 191 186 149 164 182 161 159 146 156 245 229 171 204 190 166 163 156 148 147 150 153 158 161 159 157 157 158 158 160 162 163 163 164 163 163 164 164 163 163 164 168 171 172 176 181 177 170 161 154 149 148 154 159 162 167 172 174 174 175 173 170 163 149 139 134 132 135 138 139 142 143 141 145 149 155 158 159 161 154 146 141 127 124 128 118 104 93 87 87 81 75 72 62 54 49
225 201 194 197 166 152 170 181 164 145 150 182 192 202 237 229 165 155 155 154 154 156 157 159 159 158 159 160 159 160 162 162 164 163 163 163 164 164 163 161 161 164 169 173 174 180 184 178 167 158 151 148 148 150 152 152 153 156 156 157 158 152 140 129 126 127 131 135 139 140 142 146 147 145 149 158 165 162 157 156 145 128 119 112 118 126 120 111 100 89 83 77 71 67 58 49 44
206 186 190 186 161 134 139 248 204 149 150 163 154 207 263 280 164 155 156 158 159 155 150 153 157 158 161 162 161 162 162 162 164 164 162 163 164 163 162 161 162 165 171 175 177 180 181 172 164 159 156 155 155 155 155 149 144 143 143 140 137 136 135 136 137 140 144 144 143 144 146 148 148 147 155 168 170 160 152 146 132 121 116 114 115 121 124 118 107 95 83 70 61 56 50 47 45